| time (UTC) | temp C | wind direction | speed KPH | gust KPH | rain 1hr cm | rain 24hr cm | rain mn cm | humidity % | barometer mb |
| 20260506155719 | 23 | 196 | 0.0 | 0.0 | 0.00 | 0.00 | 0.00 | 94 | 1013.2 |
| 20260506155220 | 23 | 123 | 3.2 | 0.0 | 0.00 | 0.00 | 0.00 | 94 | 1013.2 |
| 20260506154721 | 23 | 136 | 3.2 | 0.0 | 0.00 | 0.00 | 0.00 | 94 | 1013.2 |
| 20260506154219 | 23 | 158 | 3.2 | 0.0 | 0.00 | 0.00 | 0.00 | 94 | 1013.2 |
| 20260506153719 | 23 | 280 | 0.0 | 0.0 | 0.00 | 0.00 | 0.00 | 94 | 1013.2 |
| 20260506153219 | 23 | 220 | 0.0 | 0.0 | 0.00 | 0.00 | 0.00 | 94 | 1013.2 |
| 20260506152718 | 23 | 227 | 0.0 | 0.0 | 0.00 | 0.00 | 0.00 | 94 | 1012.9 |
| 20260506152218 | 23 | 215 | 0.0 | 0.0 | 0.00 | 0.00 | 0.00 | 94 | 1012.9 |
| 20260506151720 | 23 | 212 | 0.0 | 0.0 | 0.00 | 0.00 | 0.00 | 94 | 1012.9 |
| 20260506151218 | 23 | 278 | 0.0 | 0.0 | 0.00 | 0.00 | 0.00 | 94 | 1012.9 |
| 20260506150718 | 23 | 221 | 0.0 | 0.0 | 0.00 | 0.00 | 0.00 | 94 | 1012.5 |
| 20260506150218 | 23 | 168 | 0.0 | 0.0 | 0.00 | 0.00 | 0.00 | 93 | 1012.5 |
| 20260506145717 | 23 | 212 | 0.0 | 0.0 | 0.00 | 0.00 | 0.00 | 93 | 1012.5 |
| 20260506145218 | 23 | 233 | 0.0 | 0.0 | 0.00 | 0.00 | 0.00 | 93 | 1012.5 |
| 20260506144717 | 23 | 207 | 0.0 | 0.0 | 0.00 | 0.00 | 0.00 | 93 | 1012.9 |
| 20260506144216 | 23 | 202 | 0.0 | 0.0 | 0.00 | 0.00 | 0.00 | 93 | 1012.9 |
| 20260506143719 | 23 | 226 | 3.2 | 0.0 | 0.00 | 0.00 | 0.00 | 93 | 1012.9 |
| 20260506143217 | 23 | 286 | 3.2 | 0.0 | 0.00 | 0.00 | 0.00 | 93 | 1012.5 |
| 20260506142718 | 23 | 242 | 0.0 | 0.0 | 0.00 | 0.00 | 0.00 | 93 | 1012.5 |
| 20260506142216 | 23 | 187 | 0.0 | 0.0 | 0.00 | 0.00 | 0.00 | 94 | 1012.2 |
| 20260506141717 | 23 | 213 | 0.0 | 0.0 | 0.00 | 0.00 | 0.00 | 94 | 1012.2 |
| 20260506141215 | 23 | 186 | 0.0 | 0.0 | 0.00 | 0.00 | 0.00 | 94 | 1012.2 |
| 20260506140716 | 23 | 130 | 3.2 | 0.0 | 0.00 | 0.00 | 0.00 | 94 | 1012.2 |
| 20260506140216 | 23 | 176 | 0.0 | 0.0 | 0.00 | 0.00 | 0.00 | 94 | 1011.9 |
| 20260506135716 | 23 | 197 | 0.0 | 0.0 | 0.00 | 0.00 | 0.00 | 94 | 1011.9 |
| 20260506135215 | 23 | 183 | 4.8 | 0.0 | 0.00 | 0.00 | 0.00 | 94 | 1011.9 |
| 20260506134716 | 23 | 156 | 4.8 | 0.0 | 0.00 | 0.00 | 0.00 | 94 | 1011.5 |
| 20260506134216 | 23 | 149 | 6.4 | 0.0 | 0.00 | 0.00 | 0.00 | 94 | 1011.5 |
| 20260506133716 | 23 | 195 | 6.4 | 0.0 | 0.00 | 0.00 | 0.00 | 94 | 1011.5 |
| 20260506133216 | 23 | 183 | 0.0 | 0.0 | 0.00 | 0.00 | 0.00 | 94 | 1011.5 |
| 20260506132714 | 23 | 180 | 0.0 | 0.0 | 0.00 | 0.00 | 0.00 | 95 | 1011.2 |
| 20260506132213 | 23 | 204 | 6.4 | 0.0 | 0.00 | 0.00 | 0.00 | 94 | 1011.2 |
| 20260506131714 | 23 | 139 | 4.8 | 0.0 | 0.00 | 0.00 | 0.00 | 95 | 1011.2 |
| 20260506131216 | 23 | 168 | 4.8 | 0.0 | 0.00 | 0.00 | 0.00 | 95 | 1011.2 |
| 20260506130713 | 23 | 81 | 4.8 | 0.0 | 0.00 | 0.00 | 0.00 | 94 | 1011.2 |
| 20260506130216 | 23 | 121 | 3.2 | 0.0 | 0.00 | 0.00 | 0.00 | 95 | 1010.8 |
| 20260506125713 | 23 | 123 | 3.2 | 0.0 | 0.00 | 0.00 | 0.00 | 94 | 1010.8 |
| 20260506125212 | 23 | 142 | 1.6 | 0.0 | 0.00 | 0.00 | 0.00 | 94 | 1010.8 |
| 20260506124711 | 23 | 159 | 3.2 | 0.0 | 0.00 | 0.00 | 0.00 | 94 | 1010.8 |
| 20260506124211 | 23 | 173 | 4.8 | 0.0 | 0.00 | 0.00 | 0.00 | 94 | 1010.8 |
| 20260506123712 | 23 | 201 | 4.8 | 0.0 | 0.00 | 0.00 | 0.00 | 94 | 1010.8 |
| 20260506123212 | 23 | 159 | 0.0 | 0.0 | 0.00 | 0.00 | 0.00 | 94 | 1010.8 |
| 20260506122717 | 22 | 128 | 0.0 | 0.0 | 0.00 | 0.00 | 0.00 | 94 | 1010.8 |
| 20260506122211 | 23 | 181 | 0.0 | 0.0 | 0.00 | 0.00 | 0.00 | 94 | 1011.2 |
| 20260506121717 | 23 | 172 | 4.8 | 0.0 | 0.00 | 0.00 | 0.00 | 94 | 1011.2 |
| 20260506121214 | 23 | 147 | 4.8 | 0.0 | 0.00 | 0.00 | 0.00 | 94 | 1011.2 |
| 20260506120711 | 23 | 200 | 0.0 | 0.0 | 0.00 | 0.00 | 0.00 | 94 | 1011.2 |
| 20260506120214 | 23 | 148 | 0.0 | 0.0 | 0.00 | 0.00 | 0.00 | 94 | 1010.8 |
| 20260506115713 | 23 | 167 | 0.0 | 0.0 | 0.00 | 0.00 | 0.00 | 94 | 1010.8 |
| 20260506115210 | 23 | 217 | 0.0 | 0.0 | 0.00 | 0.00 | 0.00 | 94 | 1010.8 |
| 20260506114713 | 23 | 188 | 0.0 | 0.0 | 0.00 | 0.00 | 0.00 | 94 | 1010.8 |
| 20260506114212 | 23 | 175 | 0.0 | 0.0 | 0.00 | 0.00 | 0.00 | 94 | 1011.2 |
| 20260506113713 | 23 | 194 | 0.0 | 0.0 | 0.00 | 0.00 | 0.00 | 94 | 1010.8 |
| 20260506113212 | 23 | 146 | 0.0 | 0.0 | 0.00 | 0.00 | 0.00 | 94 | 1010.8 |
| 20260506112710 | 23 | 176 | 4.8 | 0.0 | 0.00 | 0.00 | 0.00 | 94 | 1010.8 |
| 20260506112211 | 23 | 196 | 0.0 | 0.0 | 0.00 | 0.00 | 0.00 | 94 | 1011.2 |
| 20260506111711 | 23 | 189 | 0.0 | 0.0 | 0.00 | 0.00 | 0.00 | 94 | 1011.2 |
| 20260506111214 | 23 | 226 | 0.0 | 0.0 | 0.00 | 0.00 | 0.00 | 94 | 1011.2 |
| 20260506110712 | 23 | 219 | 0.0 | 0.0 | 0.00 | 0.00 | 0.00 | 94 | 1010.8 |
| 20260506110211 | 23 | 173 | 0.0 | 0.0 | 0.00 | 0.00 | 0.00 | 94 | 1010.8 |
| 20260506105710 | 22 | 205 | 0.0 | 0.0 | 0.00 | 0.00 | 0.00 | 94 | 1010.8 |
| 20260506105212 | 23 | 190 | 0.0 | 0.0 | 0.00 | 0.00 | 0.00 | 94 | 1010.8 |
| 20260506104712 | 23 | 190 | 0.0 | 0.0 | 0.00 | 0.00 | 0.00 | 94 | 1010.8 |
| 20260506104210 | 23 | 191 | 0.0 | 0.0 | 0.00 | 0.00 | 0.00 | 94 | 1010.8 |
| 20260506103711 | 23 | 188 | 4.8 | 0.0 | 0.00 | 0.00 | 0.00 | 94 | 1010.8 |
| 20260506103211 | 22 | 121 | 4.8 | 0.0 | 0.00 | 0.00 | 0.00 | 94 | 1010.8 |
| 20260506102713 | 23 | 116 | 4.8 | 0.0 | 0.00 | 0.00 | 0.00 | 94 | 1010.8 |
| 20260506102212 | 23 | 222 | 3.2 | 0.0 | 0.00 | 0.00 | 0.00 | 94 | 1010.8 |
| 20260506101713 | 23 | 220 | 3.2 | 0.0 | 0.00 | 0.00 | 0.00 | 94 | 1010.8 |
| 20260506101210 | 23 | 191 | 3.2 | 0.0 | 0.00 | 0.00 | 0.00 | 94 | 1010.8 |
| 20260506100710 | 23 | 169 | 4.8 | 0.0 | 0.00 | 0.00 | 0.00 | 94 | 1010.8 |
| 20260506100214 | 23 | 180 | 6.4 | 0.0 | 0.00 | 0.00 | 0.00 | 94 | 1010.8 |
| 20260506095829 | 23 | 136 | 8.0 | 0.0 | 0.00 | 0.00 | 0.00 | 94 | 1010.8 |
| 20260506094731 | 23 | 184 | 6.4 | 0.0 | 0.00 | 0.00 | 0.00 | 94 | 1010.8 |
| 20260506094229 | 23 | 196 | 6.4 | 0.0 | 0.00 | 0.00 | 0.00 | 93 | 1010.8 |
| 20260506093729 | 23 | 120 | 4.8 | 0.0 | 0.00 | 0.00 | 0.00 | 93 | 1010.8 |
| 20260506093228 | 23 | 242 | 8.0 | 0.0 | 0.00 | 0.00 | 0.00 | 93 | 1010.8 |
| 20260506092727 | 23 | 198 | 3.2 | 0.0 | 0.00 | 0.00 | 0.00 | 93 | 1010.8 |
| 20260506092227 | 23 | 196 | 6.4 | 0.0 | 0.00 | 0.00 | 0.00 | 93 | 1010.8 |
| 20260506091728 | 23 | 320 | 8.0 | 0.0 | 0.00 | 0.00 | 0.00 | 93 | 1010.5 |
| 20260506091230 | 23 | 93 | 11.3 | 0.0 | 0.00 | 0.00 | 0.00 | 93 | 1010.5 |
| 20260506090729 | 23 | 163 | 6.4 | 0.0 | 0.00 | 0.00 | 0.00 | 93 | 1010.5 |
| 20260506090228 | 23 | 153 | 6.4 | 0.0 | 0.00 | 0.00 | 0.00 | 93 | 1010.5 |
| 20260506085727 | 23 | 140 | 6.4 | 0.0 | 0.00 | 0.00 | 0.00 | 92 | 1010.5 |
| 20260506085226 | 23 | 106 | 6.4 | 0.0 | 0.00 | 0.00 | 0.00 | 92 | 1010.5 |
| 20260506084727 | 23 | 104 | 14.5 | 0.0 | 0.00 | 0.00 | 0.00 | 92 | 1010.5 |
| 20260506084226 | 23 | 137 | 11.3 | 0.0 | 0.00 | 0.00 | 0.00 | 92 | 1010.5 |
| 20260506083727 | 23 | 135 | 8.0 | 0.0 | 0.00 | 0.00 | 0.00 | 92 | 1010.5 |
| 20260506083225 | 23 | 166 | 11.3 | 0.0 | 0.00 | 0.00 | 0.00 | 92 | 1010.5 |
| 20260506082727 | 23 | 116 | 8.0 | 0.0 | 0.00 | 0.00 | 0.00 | 92 | 1010.5 |
| 20260506082225 | 23 | 134 | 9.7 | 0.0 | 0.00 | 0.00 | 0.00 | 92 | 1010.8 |
| 20260506081727 | 23 | 146 | 6.4 | 0.0 | 0.00 | 0.00 | 0.00 | 92 | 1010.8 |
| 20260506081225 | 23 | 166 | 6.4 | 0.0 | 0.00 | 0.00 | 0.00 | 91 | 1010.8 |
| 20260506080728 | 23 | 191 | 6.4 | 0.0 | 0.00 | 0.00 | 0.00 | 91 | 1010.8 |
| 20260506080227 | 23 | 123 | 8.0 | 0.0 | 0.00 | 0.00 | 0.00 | 91 | 1010.8 |
| 20260506073226 | 23 | 113 | 9.7 | 0.0 | 0.00 | 0.00 | 0.00 | 91 | 1011.2 |
| 20260506072723 | 23 | 193 | 4.8 | 0.0 | 0.00 | 0.00 | 0.00 | 91 | 1011.2 |
| 20260506072223 | 23 | 215 | 6.4 | 0.0 | 0.00 | 0.00 | 0.00 | 91 | 1011.2 |
| 20260506071723 | 23 | 98 | 4.8 | 0.0 | 0.00 | 0.00 | 0.00 | 91 | 1011.2 |
| 20260506071222 | 23 | 138 | 6.4 | 0.0 | 0.00 | 0.00 | 0.00 | 91 | 1011.2 |
| 20260506070722 | 23 | 196 | 6.4 | 0.0 | 0.00 | 0.00 | 0.00 | 91 | 1011.2 |
| 20260506070224 | 23 | 195 | 6.4 | 0.0 | 0.00 | 0.00 | 0.00 | 91 | 1011.2 |
| 20260506062221 | 23 | 278 | 6.4 | 0.0 | 0.00 | 0.00 | 0.00 | 91 | 1011.2 |
| 20260506061722 | 23 | 123 | 11.3 | 0.0 | 0.00 | 0.00 | 0.00 | 91 | 1011.2 |
| 20260506061221 | 23 | 99 | 6.4 | 0.0 | 0.00 | 0.00 | 0.00 | 90 | 1011.2 |
| 20260506060722 | 23 | 154 | 6.4 | 0.0 | 0.00 | 0.00 | 0.00 | 90 | 1011.2 |
| 20260506060220 | 23 | 75 | 6.4 | 0.0 | 0.00 | 0.00 | 0.00 | 90 | 1011.2 |
| 20260506051218 | 24 | 76 | 8.0 | 0.0 | 0.00 | 0.00 | 0.00 | 89 | 1011.2 |
| 20260506050721 | 24 | 209 | 6.4 | 0.0 | 0.00 | 0.00 | 0.00 | 89 | 1011.2 |
| 20260506050218 | 24 | 101 | 11.3 | 0.0 | 0.00 | 0.00 | 0.00 | 89 | 1011.2 |
| 20260506044718 | 24 | 106 | 4.8 | 0.0 | 0.00 | 0.00 | 0.00 | 88 | 1010.8 |
| 20260506044217 | 24 | 133 | 6.4 | 0.0 | 0.00 | 0.00 | 0.00 | 88 | 1011.2 |
| 20260506043717 | 24 | 120 | 6.4 | 0.0 | 0.00 | 0.00 | 0.00 | 88 | 1011.2 |
| 20260506043217 | 25 | 110 | 8.0 | 0.0 | 0.00 | 0.00 | 0.00 | 88 | 1011.2 |
| 20260506042717 | 25 | 122 | 6.4 | 0.0 | 0.00 | 0.00 | 0.00 | 88 | 1010.8 |
| 20260506042215 | 25 | 153 | 4.8 | 0.0 | 0.00 | 0.00 | 0.00 | 88 | 1011.2 |
| 20260506041717 | 25 | 191 | 6.4 | 0.0 | 0.00 | 0.00 | 0.00 | 88 | 1010.8 |
| 20260506041217 | 25 | 189 | 4.8 | 0.0 | 0.00 | 0.00 | 0.00 | 88 | 1010.8 |
| 20260506040717 | 25 | 140 | 8.0 | 0.0 | 0.00 | 0.00 | 0.00 | 88 | 1010.8 |
| 20260506040218 | 25 | 61 | 8.0 | 0.0 | 0.00 | 0.00 | 0.00 | 88 | 1010.8 |
| 20260506035718 | 25 | 126 | 11.3 | 0.0 | 0.00 | 0.00 | 0.00 | 88 | 1010.8 |
| 20260506035215 | 25 | 142 | 8.0 | 0.0 | 0.00 | 0.00 | 0.00 | 88 | 1010.8 |
| 20260506034716 | 25 | 171 | 6.4 | 0.0 | 0.00 | 0.00 | 0.00 | 88 | 1010.5 |
| 20260506034216 | 25 | 173 | 4.8 | 0.0 | 0.00 | 0.00 | 0.00 | 88 | 1010.5 |
| 20260506033715 | 25 | 162 | 6.4 | 0.0 | 0.00 | 0.00 | 0.00 | 87 | 1010.5 |
| 20260506033217 | 25 | 147 | 9.7 | 0.0 | 0.00 | 0.00 | 0.00 | 87 | 1010.5 |
| 20260506032714 | 25 | 103 | 11.3 | 0.0 | 0.00 | 0.00 | 0.00 | 87 | 1010.5 |
| 20260506032213 | 25 | 178 | 8.0 | 0.0 | 0.00 | 0.00 | 0.00 | 86 | 1010.2 |
| 20260506031715 | 25 | 120 | 6.4 | 0.0 | 0.00 | 0.00 | 0.00 | 86 | 1010.2 |
| 20260506031214 | 25 | 188 | 4.8 | 0.0 | 0.00 | 0.00 | 0.00 | 86 | 1010.2 |
| 20260506030713 | 25 | 159 | 3.2 | 0.0 | 0.00 | 0.00 | 0.00 | 85 | 1009.8 |
| 20260506030216 | 25 | 171 | 6.4 | 0.0 | 0.00 | 0.00 | 0.00 | 85 | 1009.8 |
| 20260506025714 | 25 | 121 | 4.8 | 0.0 | 0.00 | 0.00 | 0.00 | 85 | 1009.8 |
| 20260506025213 | 26 | 207 | 6.4 | 0.0 | 0.00 | 0.00 | 0.00 | 84 | 1009.8 |
| 20260506024713 | 26 | 64 | 8.0 | 0.0 | 0.00 | 0.00 | 0.00 | 84 | 1009.8 |
| 20260506024214 | 26 | 128 | 6.4 | 0.0 | 0.00 | 0.00 | 0.00 | 84 | 1009.8 |
| 20260506023714 | 26 | 193 | 6.4 | 0.0 | 0.00 | 0.00 | 0.00 | 83 | 1009.5 |
| 20260506023216 | 26 | 133 | 6.4 | 0.0 | 0.00 | 0.00 | 0.00 | 83 | 1009.5 |
| 20260506022713 | 26 | 194 | 6.4 | 0.0 | 0.00 | 0.00 | 0.00 | 82 | 1009.5 |
| 20260506022214 | 26 | 125 | 6.4 | 0.0 | 0.00 | 0.00 | 0.00 | 82 | 1009.5 |
| 20260506021713 | 26 | 170 | 4.8 | 0.0 | 0.00 | 0.00 | 0.00 | 82 | 1009.1 |
| 20260506021212 | 26 | 188 | 4.8 | 0.0 | 0.00 | 0.00 | 0.00 | 82 | 1009.1 |
| 20260506020713 | 26 | 148 | 4.8 | 0.0 | 0.00 | 0.00 | 0.00 | 82 | 1009.5 |
| 20260506020213 | 26 | 162 | 6.4 | 0.0 | 0.00 | 0.00 | 0.00 | 82 | 1009.1 |
| 20260506015710 | 26 | 219 | 4.8 | 0.0 | 0.00 | 0.00 | 0.00 | 82 | 1009.1 |
| 20260506015210 | 26 | 197 | 4.8 | 0.0 | 0.00 | 0.00 | 0.00 | 82 | 1009.1 |
| 20260506014715 | 26 | 179 | 6.4 | 0.0 | 0.00 | 0.00 | 0.00 | 82 | 1008.8 |
| 20260506014212 | 26 | 199 | 4.8 | 0.0 | 0.00 | 0.00 | 0.00 | 82 | 1008.8 |
| 20260506013711 | 26 | 163 | 4.8 | 0.0 | 0.00 | 0.00 | 0.00 | 82 | 1008.8 |
| 20260506013213 | 26 | 141 | 4.8 | 0.0 | 0.00 | 0.00 | 0.00 | 82 | 1008.8 |
| 20260506012709 | 26 | 143 | 3.2 | 0.0 | 0.00 | 0.00 | 0.00 | 82 | 1008.8 |
| 20260506012214 | 26 | 112 | 3.2 | 0.0 | 0.00 | 0.00 | 0.00 | 81 | 1008.8 |
| 20260506011711 | 26 | 150 | 0.0 | 0.0 | 0.00 | 0.00 | 0.00 | 81 | 1008.8 |
| 20260506011209 | 27 | 169 | 0.0 | 0.0 | 0.00 | 0.00 | 0.00 | 81 | 1008.8 |
| 20260506010714 | 27 | 175 | 0.0 | 0.0 | 0.00 | 0.00 | 0.00 | 79 | 1008.8 |
| 20260506010212 | 27 | 187 | 0.0 | 0.0 | 0.00 | 0.00 | 0.00 | 79 | 1008.5 |
| 20260506005713 | 27 | 187 | 1.6 | 0.0 | 0.00 | 0.00 | 0.00 | 78 | 1008.5 |
| 20260506005210 | 27 | 178 | 3.2 | 0.0 | 0.00 | 0.00 | 0.00 | 77 | 1008.5 |
| 20260506004717 | 27 | 207 | 3.2 | 0.0 | 0.00 | 0.00 | 0.00 | 77 | 1008.5 |
| 20260506004214 | 27 | 175 | 0.0 | 0.0 | 0.00 | 0.00 | 0.00 | 77 | 1008.5 |
| 20260506003710 | 27 | 201 | 3.2 | 0.0 | 0.00 | 0.00 | 0.00 | 77 | 1008.5 |
| 20260506003210 | 27 | 202 | 3.2 | 0.0 | 0.00 | 0.00 | 0.00 | 77 | 1008.5 |
| 20260506002712 | 27 | 182 | 0.0 | 0.0 | 0.00 | 0.00 | 0.00 | 77 | 1008.5 |
| 20260506002215 | 28 | 186 | 0.0 | 0.0 | 0.00 | 0.00 | 0.00 | 76 | 1008.5 |
| 20260506001711 | 28 | 189 | 3.2 | 0.0 | 0.00 | 0.00 | 0.00 | 75 | 1008.5 |
| 20260506001213 | 28 | 182 | 0.0 | 0.0 | 0.00 | 0.00 | 0.00 | 74 | 1008.5 |
| 20260506000711 | 28 | 197 | 0.0 | 0.0 | 0.00 | 0.00 | 0.00 | 73 | 1008.1 |
| 20260506000312 | 28 | 187 | 3.2 | 0.0 | 0.00 | 0.00 | 0.00 | 73 | 1008.5 |
| 20260505235213 | 28 | 190 | 1.6 | 0.0 | 0.00 | 0.00 | 0.00 | 72 | 1008.5 |
| 20260505234713 | 28 | 197 | 0.0 | 0.0 | 0.00 | 0.00 | 0.00 | 71 | 1008.5 |
| 20260505234212 | 28 | 199 | 0.0 | 0.0 | 0.00 | 0.00 | 0.00 | 71 | 1008.5 |
| 20260505233712 | 28 | 186 | 3.2 | 0.0 | 0.00 | 0.00 | 0.00 | 70 | 1008.5 |
| 20260505233213 | 28 | 159 | 4.8 | 0.0 | 0.00 | 0.00 | 0.00 | 69 | 1008.5 |
| 20260505232712 | 28 | 266 | 11.3 | 0.0 | 0.00 | 0.00 | 0.00 | 70 | 1008.5 |
| 20260505232211 | 29 | 133 | 6.4 | 0.0 | 0.00 | 0.00 | 0.00 | 69 | 1008.5 |
| 20260505231710 | 29 | 176 | 6.4 | 0.0 | 0.00 | 0.00 | 0.00 | 68 | 1008.5 |
| 20260505231211 | 29 | 177 | 1.6 | 0.0 | 0.00 | 0.00 | 0.00 | 70 | 1008.5 |
| 20260505230710 | 29 | 152 | 4.8 | 0.0 | 0.00 | 0.00 | 0.00 | 68 | 1008.1 |
| 20260505230212 | 29 | 254 | 6.4 | 0.0 | 0.00 | 0.00 | 0.00 | 68 | 1008.1 |
| 20260505225714 | 29 | 96 | 6.4 | 0.0 | 0.00 | 0.00 | 0.00 | 68 | 1008.1 |
| 20260505225211 | 29 | 104 | 6.4 | 0.0 | 0.00 | 0.00 | 0.00 | 68 | 1008.5 |
| 20260505224713 | 29 | 179 | 4.8 | 0.0 | 0.00 | 0.00 | 0.00 | 69 | 1008.5 |
| 20260505224214 | 29 | 135 | 6.4 | 0.0 | 0.00 | 0.00 | 0.00 | 69 | 1008.1 |
| 20260505223713 | 29 | 241 | 4.8 | 0.0 | 0.00 | 0.00 | 0.00 | 68 | 1008.5 |
| 20260505223212 | 29 | 309 | 4.8 | 0.0 | 0.00 | 0.00 | 0.00 | 68 | 1008.5 |
| 20260505222711 | 29 | 126 | 8.0 | 0.0 | 0.00 | 0.00 | 0.00 | 68 | 1008.5 |
| 20260505222212 | 29 | 126 | 8.0 | 0.0 | 0.00 | 0.00 | 0.00 | 68 | 1008.5 |
| 20260505221712 | 29 | 229 | 6.4 | 0.0 | 0.00 | 0.00 | 0.00 | 68 | 1008.5 |
| 20260505221211 | 29 | 92 | 9.7 | 0.0 | 0.00 | 0.00 | 0.00 | 68 | 1008.5 |
| 20260505220712 | 29 | 113 | 9.7 | 0.0 | 0.00 | 0.00 | 0.00 | 67 | 1008.5 |
| 20260505220211 | 29 | 134 | 4.8 | 0.0 | 0.00 | 0.00 | 0.00 | 68 | 1008.5 |
| 20260505215713 | 29 | 114 | 8.0 | 0.0 | 0.00 | 0.00 | 0.00 | 69 | 1008.5 |
| 20260505215210 | 29 | 265 | 8.0 | 0.0 | 0.00 | 0.00 | 0.00 | 67 | 1008.5 |
| 20260505214711 | 29 | 325 | 9.7 | 0.0 | 0.00 | 0.00 | 0.00 | 67 | 1008.8 |
| 20260505214211 | 29 | 126 | 9.7 | 0.0 | 0.00 | 0.00 | 0.00 | 68 | 1008.8 |
| 20260505213713 | 29 | 134 | 11.3 | 0.0 | 0.00 | 0.00 | 0.00 | 68 | 1008.8 |
| 20260505213214 | 29 | 160 | 8.0 | 0.0 | 0.00 | 0.00 | 0.00 | 67 | 1008.8 |
| 20260505212713 | 30 | 154 | 11.3 | 0.0 | 0.00 | 0.00 | 0.00 | 66 | 1008.8 |
| 20260505212214 | 30 | 56 | 12.9 | 0.0 | 0.00 | 0.00 | 0.00 | 67 | 1008.8 |
| 20260505211712 | 30 | 68 | 9.7 | 0.0 | 0.00 | 0.00 | 0.00 | 68 | 1009.1 |
| 20260505211211 | 30 | 256 | 6.4 | 0.0 | 0.00 | 0.00 | 0.00 | 68 | 1009.1 |
| 20260505210711 | 30 | 208 | 9.7 | 0.0 | 0.00 | 0.00 | 0.00 | 67 | 1009.1 |
| 20260505210211 | 30 | 182 | 6.4 | 0.0 | 0.00 | 0.00 | 0.00 | 68 | 1009.1 |
| 20260505205712 | 30 | 259 | 6.4 | 0.0 | 0.00 | 0.00 | 0.00 | 69 | 1009.5 |
| 20260505205209 | 29 | 101 | 4.8 | 0.0 | 0.00 | 0.00 | 0.00 | 69 | 1009.5 |
| 20260505204712 | 29 | 137 | 9.7 | 0.0 | 0.00 | 0.00 | 0.00 | 69 | 1009.5 |
| 20260505204209 | 29 | 207 | 9.7 | 0.0 | 0.00 | 0.00 | 0.00 | 70 | 1009.5 |
| 20260505203712 | 28 | 110 | 12.9 | 0.0 | 0.00 | 0.00 | 0.00 | 70 | 1009.5 |
| 20260505203214 | 28 | 129 | 8.0 | 0.0 | 0.00 | 0.00 | 0.00 | 71 | 1009.8 |
| 20260505202711 | 28 | 170 | 11.3 | 0.0 | 0.00 | 0.00 | 0.00 | 70 | 1009.8 |
| 20260505202211 | 29 | 112 | 4.8 | 0.0 | 0.00 | 0.00 | 0.00 | 71 | 1009.8 |
| 20260505201710 | 29 | 180 | 8.0 | 0.0 | 0.00 | 0.00 | 0.00 | 69 | 1009.8 |
| 20260505201212 | 29 | 102 | 6.4 | 0.0 | 0.00 | 0.00 | 0.00 | 70 | 1009.8 |
| 20260505200710 | 29 | 255 | 8.0 | 0.0 | 0.00 | 0.00 | 0.00 | 70 | 1010.2 |
| 20260505200213 | 29 | 122 | 9.7 | 0.0 | 0.00 | 0.00 | 0.00 | 70 | 1009.8 |
| 20260505195714 | 28 | 156 | 9.7 | 0.0 | 0.00 | 0.00 | 0.00 | 70 | 1010.2 |
| 20260505195214 | 28 | 133 | 9.7 | 0.0 | 0.00 | 0.00 | 0.00 | 73 | 1010.2 |
| 20260505194712 | 28 | 333 | 11.3 | 0.0 | 0.00 | 0.00 | 0.00 | 71 | 1010.2 |
| 20260505194215 | 28 | 203 | 8.0 | 0.0 | 0.00 | 0.00 | 0.00 | 72 | 1010.5 |
| 20260505193710 | 28 | 45 | 6.4 | 0.0 | 0.00 | 0.00 | 0.00 | 73 | 1010.5 |
| 20260505193213 | 28 | 82 | 6.4 | 0.0 | 0.00 | 0.00 | 0.00 | 71 | 1010.5 |
| 20260505192713 | 28 | 338 | 8.0 | 0.0 | 0.00 | 0.00 | 0.00 | 72 | 1010.5 |
| 20260505192212 | 28 | 216 | 6.4 | 0.0 | 0.00 | 0.00 | 0.00 | 71 | 1010.5 |
| 20260505191710 | 28 | 126 | 4.8 | 0.0 | 0.00 | 0.00 | 0.00 | 71 | 1010.5 |
| 20260505191213 | 28 | 149 | 6.4 | 0.0 | 0.00 | 0.00 | 0.00 | 72 | 1010.5 |
| 20260505190711 | 28 | 340 | 8.0 | 0.0 | 0.00 | 0.00 | 0.00 | 74 | 1010.5 |
| 20260505190215 | 27 | 164 | 9.7 | 0.0 | 0.00 | 0.00 | 0.00 | 74 | 1010.5 |
| 20260505185714 | 27 | 120 | 6.4 | 0.0 | 0.00 | 0.00 | 0.00 | 74 | 1010.8 |
| 20260505185215 | 27 | 133 | 4.8 | 0.0 | 0.00 | 0.00 | 0.00 | 73 | 1010.8 |
| 20260505184711 | 27 | 274 | 9.7 | 0.0 | 0.00 | 0.00 | 0.00 | 74 | 1011.2 |
| 20260505184210 | 27 | 147 | 6.4 | 0.0 | 0.00 | 0.00 | 0.00 | 75 | 1011.2 |
| 20260505183714 | 27 | 160 | 8.0 | 0.0 | 0.00 | 0.00 | 0.00 | 77 | 1011.2 |
| 20260505183211 | 26 | 88 | 4.8 | 0.0 | 0.00 | 0.00 | 0.00 | 77 | 1011.2 |
| 20260505182712 | 26 | 122 | 6.4 | 0.0 | 0.00 | 0.00 | 0.00 | 77 | 1011.2 |
| 20260505182213 | 26 | 115 | 4.8 | 0.0 | 0.00 | 0.00 | 0.00 | 77 | 1011.2 |
| 20260505181713 | 26 | 173 | 6.4 | 0.0 | 0.00 | 0.00 | 0.00 | 77 | 1011.5 |
| 20260505181214 | 26 | 131 | 4.8 | 0.0 | 0.00 | 0.00 | 0.00 | 78 | 1011.2 |
| 20260505180711 | 26 | 235 | 4.8 | 0.0 | 0.00 | 0.00 | 0.00 | 78 | 1011.2 |
| 20260505180215 | 26 | 249 | 6.4 | 0.0 | 0.00 | 0.00 | 0.00 | 80 | 1011.5 |
| 20260505175716 | 26 | 203 | 9.7 | 0.0 | 0.00 | 0.00 | 0.00 | 80 | 1011.5 |
| 20260505175212 | 25 | 185 | 6.4 | 0.0 | 0.00 | 0.00 | 0.00 | 81 | 1011.5 |
| 20260505174709 | 25 | 191 | 3.2 | 0.0 | 0.00 | 0.00 | 0.00 | 81 | 1011.5 |
| 20260505174210 | 25 | 221 | 4.8 | 0.0 | 0.00 | 0.00 | 0.00 | 83 | 1011.5 |
| 20260505173712 | 25 | 166 | 6.4 | 0.0 | 0.00 | 0.00 | 0.00 | 82 | 1011.5 |
| 20260505173211 | 25 | 189 | 4.8 | 0.0 | 0.00 | 0.00 | 0.00 | 84 | 1011.5 |
| 20260505172711 | 25 | 207 | 4.8 | 0.0 | 0.00 | 0.00 | 0.00 | 84 | 1011.5 |
| 20260505172236 | 24 | 201 | 4.8 | 0.0 | 0.00 | 0.00 | 0.00 | 85 | 1011.5 |
| 20260505171734 | 24 | 153 | 8.0 | 0.0 | 0.00 | 0.00 | 0.00 | 86 | 1011.5 |
| 20260505171234 | 24 | 122 | 4.8 | 0.0 | 0.00 | 0.00 | 0.00 | 87 | 1011.5 |
| 20260505170735 | 23 | 123 | 4.8 | 0.0 | 0.00 | 0.00 | 0.00 | 87 | 1011.5 |
| 20260505170234 | 23 | 200 | 4.8 | 0.0 | 0.00 | 0.00 | 0.00 | 88 | 1011.5 |
| 20260505165734 | 23 | 133 | 9.7 | 0.0 | 0.00 | 0.00 | 0.00 | 88 | 1011.5 |
| 20260505165235 | 23 | 307 | 8.0 | 0.0 | 0.00 | 0.00 | 0.00 | 89 | 1011.5 |
| 20260505164734 | 23 | 214 | 8.0 | 0.0 | 0.00 | 0.00 | 0.00 | 91 | 1011.5 |
| 20260505164234 | 23 | 244 | 6.4 | 0.0 | 0.00 | 0.00 | 0.00 | 91 | 1011.5 |
| 20260505163735 | 22 | 202 | 6.4 | 0.0 | 0.00 | 0.00 | 0.00 | 92 | 1011.5 |
| 20260505163234 | 22 | 194 | 3.2 | 0.0 | 0.00 | 0.00 | 0.00 | 93 | 1011.5 |
| 20260505162746 | 22 | 190 | 6.4 | 0.0 | 0.00 | 0.00 | 0.00 | 93 | 1011.5 |
| 20260505162234 | 22 | 203 | 6.4 | 0.0 | 0.00 | 0.00 | 0.00 | 94 | 1011.5 |
| 20260505161735 | 22 | 111 | 4.8 | 0.0 | 0.00 | 0.00 | 0.00 | 94 | 1011.5 |
| 20260505161232 | 22 | 171 | 4.8 | 0.0 | 0.00 | 0.00 | 0.00 | 94 | 1011.5 |
| 20260505160733 | 22 | 226 | 4.8 | 0.0 | 0.00 | 0.00 | 0.00 | 95 | 1011.9 |
| 20260505160232 | 22 | 157 | 3.2 | 0.0 | 0.00 | 0.00 | 0.00 | 95 | 1011.5 |